Temperature
17 17 16 16 16 16 16 16 16 16 16 15 15 15 15 16 16 16 16 17 17 17 17 17 17 17 17 17 17 17 17 17 17 17 17 17 17 17 17 17 18 18 18
17 17 16 16 16 16 16 16 16 16 15 15 15 15 15 15 16 16 16 16 16 16 16 16 17 17 17 17 17 17 17 17 17 17 17 17 17 17 17 17 17 18 18
17 17 17 16 16 16 16 16 16 16 15 15 15 14 14 14 15 16 16 16 16 16 16 16 16 17 17 17 17 17 17 17 16 17 17 17 16 16 16 16 17 17 18
16 17 17 16 16 16 16 16 16 15 15 15 15 14 14 14 15 15 16 16 17 16 16 16 16 16 16 16 16 16 16 17 16 16 16 16 16 16 16 16 16 17 17
16 16 16 16 16 16 16 16 16 16 15 15 15 15 14 14 14 15 15 16 16 16 16 16 16 16 16 16 16 16 16 16 16 16 16 16 16 16 16 16 16 16 17
16 16 16 16 16 16 16 16 16 16 15 15 15 15 14 14 13 14 14 15 16 16 17 16 16 17 16 16 16 16 16 15 15 15 16 17 17 17 16 16 16 16 16
16 16 16 16 16 16 15 16 16 15 15 15 15 14 14 14 13 13 14 14 15 15 15 16 17 16 16 16 16 16 16 16 16 16 16 17 17 17 16 16 16 16 16
16 16 15 16 16 16 15 15 15 15 15 15 16 15 15 15 14 14 14 14 15 15 15 15 15 16 15 16 16 16 16 16 15 15 16 16 16 17 16 16 16 16 16
16 16 15 15 16 16 16 15 15 15 15 15 16 16 16 17 15 14 14 14 14 15 15 15 14 15 15 15 15 15 15 15 15 15 15 15 15 16 16 16 16 16 16
16 16 16 16 16 16 16 16 16 15 15 15 15 16 16 17 17 16 14 14 14 14 15 15 15 15 15 15 15 15 15 16 16 16 15 15 15 15 15 15 16 16 16
15 16 16 16 15 15 15 16 15 16 16 15 15 15 15 16 17 18 16 14 14 14 14 14 15 15 14 15 15 15 15 15 15 15 16 16 15 15 15 15 15 15 15
15 15 15 15 15 15 15 15 15 15 16 16 16 16 16 16 17 17 18 17 16 15 14 14 15 15 15 15 15 15 15 15 15 15 15 15 15 15 15 14 15 15 15
15 15 14 14 14 14 15 16 15 15 16 15 16 16 16 16 17 17 18 18 17 15 14 14 14 14 14 14 14 14 14 14 15 15 15 15 15 15 14 14 14 14 15
14 14 14 14 14 14 14 15 14 14 15 15 15 15 15 16 16 16 17 17 17 17 15 15 14 14 14 14 14 14 14 14 14 14 14 14 14 14 14 14 14 14 14
14 13 13 13 13 13 13 13 14 14 14 14 14 15 15 15 15 15 16 16 16 16 16 15 14 14 15 15 14 13 13 13 13 13 13 13 14 14 14 13 13 13 14
14 13 13 13 13 13 13 13 13 14 13 14 14 14 14 15 15 15 15 15 16 16 16 15 15 15 15 15 14 14 13 13 13 13 13 13 13 14 14 14 14 14 14
13 13 13 13 13 13 12 12 13 12 13 13 14 15 15 15 14 14 15 15 15 15 16 15 14 15 15 14 14 14 14 13 13 13 13 12 13 13 14 15 15 15 14
13 13 13 13 13 13 12 12 13 12 12 13 13 13 14 14 14 14 15 15 15 15 15 14 14 15 15 14 14 14 14 13 12 13 13 12 12 13 14 14 15 15 14
13 13 13 13 13 12 12 13 13 12 12 12 12 13 13 13 14 14 15 15 15 15 14 14 13 15 14 14 14 14 13 13 12 13 13 12 12 13 13 14 14 14 14
14 14 14 13 13 13 13 13 13 13 13 13 13 13 14 13 15 15 15 15 15 14 14 14 13 14 13 13 13 13 13 12 12 12 13 12 12 12 13 13 14 14 14
14 14 14 14 14 14 14 14 14 14 14 14 14 14 14 13 14 14 14 15 14 14 14 14 14 13 13 14 14 13 13 13 12 11 12 12 11 11 12 12 13 13 13
13 13 14 14 14 14 14 15 14 14 14 14 14 14 13 14 14 14 14 14 14 14 14 14 14 13 13 14 14 14 13 12 12 12 12 11 12 11 11 11 12 12 12
14 13 13 14 13 13 14 14 14 14 13 13 14 14 14 14 14 14 14 15 14 14 14 14 13 14 14 14 13 13 13 13 13 12 12 10 12 11 12 13 12 12 11
14 15 14 14 14 13 13 14 14 13 13 13 13 14 14 13 13 14 14 14 14 14 14 14 14 13 13 13 13 13 13 13 12 12 12 11 11 12 12 12 13 12 11
15 15 15 14 14 13 13 13 13 13 13 13 13 13 13 13 14 14 14 14 14 14 14 14 14 13 13 13 12 12 12 12 12 12 13 11 11 11 12 12 13 12 11
15 14 14 14 14 13 13 13 13 13 13 13 13 13 13 13 14 13 13 13 13 13 14 14 14 14 13 13 12 12 12 12 13 12 13 12 12 11 11 11 11 12 11
Wind_Speed
7 8 8 8 7 6 6 6 6 6 6 7 8 10 10 12 12 11 13 18 16 12 9 9 9 8 8 8 8 7 4 3 2 1 1 1 1 2 4 5 5 5 6
7 8 9 9 9 8 6 6 7 6 6 7 8 9 10 12 12 12 11 15 20 19 15 13 12 11 10 11 11 11 9 7 6 5 4 3 3 4 4 5 5 5 7
9 9 10 10 9 8 6 6 8 7 6 6 6 7 8 10 11 12 11 10 11 16 20 19 17 14 12 12 13 13 11 10 8 7 6 5 5 4 4 3 3 4 7
11 10 10 10 10 9 8 8 7 7 7 6 5 5 6 7 8 10 10 11 9 8 13 17 19 18 15 13 12 12 11 10 8 6 6 5 5 5 3 1 2 3 5
12 10 9 10 12 9 9 10 8 8 7 6 5 5 6 6 7 8 10 11 10 9 9 10 13 17 17 17 16 13 10 9 8 8 6 4 4 4 3 1 2 2 4
13 10 9 11 12 10 8 9 9 9 8 7 6 5 4 5 6 6 8 9 9 10 10 8 6 10 13 15 16 17 16 12 12 10 7 5 5 3 3 1 1 1 3
9 6 7 11 11 10 11 9 7 8 8 8 6 5 4 4 5 4 5 6 7 8 9 8 7 6 8 11 16 17 17 16 13 10 8 6 5 3 2 3 3 2 2
7 5 8 9 12 12 10 9 9 7 8 9 7 6 5 5 5 4 3 4 5 6 7 7 8 8 7 8 11 16 16 15 13 12 11 12 9 3 1 2 3 3 4
11 6 7 7 10 12 11 12 11 13 11 11 9 6 4 3 7 5 5 4 4 4 4 5 6 7 7 7 7 12 14 15 16 16 14 15 15 11 4 3 3 2 3
15 14 14 12 12 13 13 12 15 13 12 11 10 9 5 3 5 4 6 6 5 4 4 3 3 4 5 5 7 9 11 12 14 14 14 14 15 16 11 9 10 9 8
13 15 15 10 13 13 14 12 13 13 13 13 13 11 9 7 6 4 7 7 7 6 5 4 3 2 3 4 5 6 9 10 11 12 12 11 12 15 15 12 11 11 11
9 14 15 13 10 12 13 11 11 14 13 15 14 12 11 10 8 7 5 8 7 7 7 5 4 3 2 3 4 4 5 8 9 10 11 12 12 14 15 16 16 16 14
5 9 11 13 13 13 10 6 6 8 13 14 15 13 12 11 9 7 6 5 6 6 6 6 6 5 4 2 4 2 3 5 5 6 8 10 11 12 13 14 14 13 11
5 8 10 11 11 10 10 12 10 5 10 12 14 14 11 9 8 7 7 5 5 6 7 5 6 7 6 3 5 1 3 2 3 4 6 8 10 11 11 11 10 9 9
4 7 9 9 9 9 10 11 13 10 7 11 11 12 10 9 9 8 9 9 7 6 5 6 6 7 8 6 5 3 2 5 3 5 4 6 7 9 9 8 7 9 9
5 4 3 4 7 9 10 10 11 10 7 4 3 3 5 7 9 10 10 10 10 8 6 4 4 6 9 8 7 4 4 5 5 5 5 4 6 7 8 7 7 8 8
6 8 8 8 9 9 9 7 8 11 7 4 1 3 8 10 9 10 11 11 11 10 10 4 3 5 10 9 8 7 6 5 6 6 4 4 4 5 6 6 5 5 7
6 6 5 6 7 7 8 9 8 8 7 4 3 7 10 8 10 10 10 12 12 11 10 9 5 6 9 11 10 8 7 5 5 7 5 4 3 3 4 4 5 5 5
8 7 7 8 9 9 10 10 9 9 9 9 9 6 10 12 11 11 11 12 11 11 10 10 6 6 8 10 11 9 8 6 6 7 6 6 5 4 3 3 4 4 2
8 7 8 8 10 10 10 10 10 11 13 14 12 11 11 14 13 12 11 12 12 12 11 10 8 8 7 8 10 10 8 8 7 8 7 5 6 6 5 4 3 4 3
9 8 7 7 8 8 9 11 12 13 14 13 14 13 12 15 10 7 9 10 10 10 10 10 9 8 7 7 11 11 10 9 9 8 8 8 9 9 9 7 5 4 4
11 10 9 9 8 7 7 6 6 8 9 11 12 11 10 10 10 8 11 13 10 10 11 11 10 11 13 12 12 11 10 8 7 9 9 8 8 7 8 7 6 6 4
11 11 12 11 11 8 8 9 9 8 10 11 12 12 11 8 9 10 13 12 12 13 13 13 13 15 14 13 13 13 12 12 8 7 9 8 8 8 9 8 8 5 4
12 13 13 13 12 9 8 8 8 12 11 11 12 12 10 11 12 11 10 9 11 12 12 13 14 11 7 8 13 14 13 11 7 6 8 6 8 8 8 10 13 9 7
12 13 12 11 10 10 10 9 9 11 11 11 11 11 11 11 8 7 10 9 9 9 5 6 4 1 6 9 11 11 10 10 9 8 9 6 6 7 7 8 13 13 11
11 10 9 8 9 10 9 9 11 10 10 8 7 8 7 6 5 7 8 7 7 5 5 4 5 5 7 11 13 14 12 11 10 7 9 8 7 7 5 7 9 13 13
Wind_Direction
181 168 170 164 157 167 152 145 140 119 95 75 75 77 78 82 84 74 59 51 48 55 63 65 66 65 64 66 66 69 83 88 101 112 332 315 354 32 30 5 351 348 351
185 184 168 164 169 171 162 150 131 125 116 100 83 77 78 77 82 84 72 58 48 45 49 59 67 71 70 69 64 60 58 57 52 41 23 3 3 17 24 14 360 358 5
190 189 170 179 170 160 154 144 143 135 125 117 104 87 79 77 75 74 69 60 55 47 42 42 46 55 61 66 64 61 60 61 50 36 32 29 18 13 24 10 13 24 17
191 191 180 184 177 170 159 158 163 153 143 140 127 100 86 77 79 76 71 68 57 56 52 40 35 40 51 57 62 58 56 56 47 41 24 17 8 3 9 339 48 41 19
197 189 194 187 182 181 174 165 171 166 156 157 145 124 96 78 74 79 70 65 64 58 57 57 47 39 40 45 46 46 48 48 47 47 29 8 356 351 351 76 84 40 348
213 203 200 200 189 186 186 179 173 174 170 171 152 131 110 99 90 76 75 68 66 67 62 54 55 54 47 41 37 34 35 43 40 37 30 12 355 326 299 311 318 339 324
212 221 227 212 200 192 198 198 186 186 180 175 156 141 139 125 112 104 91 86 78 73 75 70 60 56 60 53 39 35 31 30 29 26 32 30 13 346 312 311 282 260 310
183 211 245 236 207 203 206 211 201 184 189 191 182 170 177 165 156 148 130 105 100 92 78 69 67 62 55 54 50 42 31 25 25 40 49 51 40 28 259 299 302 264 260
174 160 240 252 250 231 207 214 208 195 193 202 210 197 209 188 157 172 176 168 147 126 96 73 69 65 55 53 51 46 29 26 28 35 45 43 34 36 54 54 34 359 290
192 192 214 226 233 250 233 214 216 208 205 199 213 229 242 182 189 166 188 197 194 178 161 133 90 82 78 67 65 43 25 31 33 30 30 32 36 44 68 69 69 68 64
207 215 219 222 226 240 240 228 220 216 212 206 208 212 214 214 226 205 171 184 202 206 196 177 157 128 83 79 71 50 20 24 37 35 30 26 32 37 47 54 66 68 62
222 224 220 222 228 241 240 237 219 222 220 218 212 213 210 210 213 222 194 171 189 186 193 193 191 165 137 100 75 53 25 15 37 39 37 34 34 33 32 38 52 53 50
238 244 229 219 217 222 210 176 182 221 226 225 225 220 219 215 218 217 221 186 188 173 188 193 193 180 173 162 102 52 60 25 34 49 50 46 42 37 33 30 37 38 44
221 235 235 233 228 206 176 162 145 185 232 222 226 225 226 226 227 232 235 233 212 196 192 188 177 186 177 158 97 138 126 74 45 86 70 55 49 42 36 31 32 29 35
220 248 237 223 205 184 173 166 149 152 212 220 208 219 218 222 217 233 242 243 241 236 224 209 172 184 178 167 150 186 143 109 93 112 103 67 53 43 33 26 30 30 28
196 220 208 215 199 183 181 167 145 144 162 161 167 205 232 233 219 218 223 236 245 250 240 208 161 159 179 176 152 184 119 144 136 121 113 93 68 52 35 25 25 23 15
188 197 216 209 203 191 181 162 157 151 155 138 80 273 243 233 223 218 218 225 232 236 242 194 155 168 181 182 161 182 164 199 154 140 124 118 96 61 49 37 29 15 3
199 212 216 206 201 181 173 168 165 157 163 164 232 266 265 235 231 224 221 223 227 228 226 227 181 184 194 190 182 186 191 202 202 151 160 156 145 107 77 49 27 359 9
203 211 200 201 211 195 183 183 187 172 182 203 217 245 274 259 229 230 229 228 230 234 221 229 184 183 201 190 188 199 198 202 214 154 184 188 179 164 141 77 36 3 36
209 211 212 207 213 212 207 198 194 210 205 209 207 212 230 262 250 238 239 236 227 228 226 224 190 180 194 193 195 203 207 210 214 199 202 194 185 175 175 169 92 37 68
215 219 223 213 214 209 208 207 202 218 222 214 211 205 200 226 253 271 269 255 236 229 227 226 210 192 191 189 202 206 211 205 216 206 203 197 196 193 181 193 164 113 82
225 223 233 227 221 213 178 220 225 220 240 240 234 226 216 222 233 238 247 257 263 246 229 225 222 214 209 209 205 203 203 199 209 199 203 198 194 199 193 188 128 116 109
217 215 220 228 235 223 173 206 223 235 241 247 247 234 212 207 228 236 229 233 248 243 240 237 232 233 233 211 194 198 203 206 211 162 187 190 186 197 189 159 148 172 166
205 208 213 214 223 222 179 206 219 243 245 246 248 246 233 220 214 223 236 236 238 231 230 238 245 250 250 194 193 205 205 204 204 168 197 197 182 192 182 180 165 182 192
208 207 214 216 217 222 184 199 217 243 245 246 242 234 225 226 206 209 238 241 248 242 221 233 256 129 158 185 204 201 200 195 200 198 201 212 182 184 181 195 184 182 192
218 216 213 214 221 232 192 198 218 236 237 235 230 224 208 229 174 203 238 253 264 260 233 200 178 183 192 206 215 205 200 202 208 202 192 201 180 181 188 197 193 187 196
Height
1546 1547 1548 1550 1551 1553 1555 1555 1556 1557 1557 1557 1556 1555 1555 1553 1551 1550 1550 1549 1549 1549 1549 1548 1547 1547 1548 1548 1549 1549 1549 1550 1551 1551 1551 1551 1552 1552 1552 1551 1550 1549 1547
1545 1546 1547 1549 1549 1552 1555 1556 1556 1556 1558 1558 1557 1556 1555 1554 1554 1552 1552 1552 1552 1551 1551 1550 1550 1549 1549 1549 1550 1549 1549 1550 1551 1551 1551 1551 1551 1552 1551 1551 1550 1549 1548
1544 1545 1547 1549 1550 1551 1554 1555 1556 1556 1558 1559 1559 1558 1556 1555 1555 1555 1554 1553 1554 1554 1553 1552 1552 1552 1551 1551 1550 1550 1550 1550 1550 1550 1549 1550 1551 1551 1551 1551 1550 1549 1548
1541 1544 1546 1547 1549 1550 1552 1553 1555 1557 1558 1559 1561 1560 1558 1556 1556 1556 1556 1556 1555 1556 1556 1555 1555 1554 1553 1552 1551 1550 1550 1551 1551 1549 1549 1549 1550 1550 1551 1551 1550 1549 1548
1539 1541 1544 1546 1547 1549 1551 1552 1554 1556 1557 1559 1560 1561 1560 1558 1557 1558 1557 1557 1557 1557 1557 1556 1556 1556 1555 1553 1553 1552 1552 1551 1550 1549 1549 1548 1549 1550 1550 1551 1550 1549 1549
1538 1540 1542 1544 1546 1547 1549 1551 1552 1555 1556 1558 1559 1560 1560 1558 1558 1558 1558 1557 1558 1558 1558 1557 1558 1557 1556 1555 1554 1553 1552 1551 1550 1550 1549 1548 1549 1549 1549 1549 1550 1549 1549
1533 1536 1540 1543 1544 1545 1546 1549 1550 1553 1555 1557 1558 1559 1560 1559 1559 1559 1559 1559 1559 1559 1559 1559 1559 1558 1558 1557 1556 1554 1553 1552 1552 1550 1549 1548 1548 1548 1549 1549 1549 1548 1548
1526 1530 1536 1541 1542 1543 1543 1545 1548 1549 1553 1555 1557 1558 1559 1561 1559 1560 1560 1561 1561 1561 1561 1561 1560 1559 1559 1558 1557 1556 1554 1554 1554 1552 1550 1549 1549 1548 1548 1548 1547 1547 1546
1521 1526 1531 1536 1538 1540 1541 1541 1544 1546 1549 1552 1555 1556 1557 1556 1558 1560 1560 1560 1560 1560 1560 1560 1561 1560 1560 1559 1558 1557 1556 1555 1554 1552 1551 1550 1549 1548 1547 1547 1546 1546 1545
1518 1521 1523 1528 1532 1534 1536 1537 1539 1542 1546 1547 1550 1553 1554 1554 1555 1558 1559 1560 1560 1560 1559 1559 1560 1560 1560 1560 1559 1558 1557 1556 1554 1553 1552 1551 1550 1549 1547 1546 1545 1545 1545
1511 1514 1517 1520 1524 1527 1530 1532 1534 1538 1541 1544 1547 1549 1551 1552 1553 1554 1556 1558 1559 1558 1558 1558 1557 1558 1558 1558 1558 1558 1557 1556 1555 1553 1552 1551 1550 1549 1548 1546 1546 1545 1544
1508 1509 1511 1514 1517 1520 1523 1526 1529 1533 1536 1540 1544 1546 1548 1549 1551 1553 1553 1555 1557 1558 1556 1555 1555 1555 1556 1556 1556 1557 1557 1556 1555 1553 1551 1550 1549 1548 1548 1547 1545 1544 1544
1504 1504 1505 1506 1509 1512 1514 1518 1522 1527 1531 1535 1539 1542 1545 1547 1548 1550 1552 1553 1555 1556 1556 1554 1553 1553 1554 1554 1554 1555 1555 1555 1554 1553 1552 1550 1549 1548 1547 1546 1545 1545 1544
1500 1501 1502 1503 1505 1507 1507 1510 1516 1522 1526 1529 1533 1537 1540 1543 1545 1547 1549 1550 1552 1553 1553 1554 1552 1551 1551 1552 1552 1553 1552 1553 1552 1551 1550 1549 1548 1547 1546 1545 1544 1544 1544
1497 1499 1500 1501 1501 1502 1503 1504 1508 1517 1522 1525 1528 1532 1535 1537 1539 1541 1544 1547 1549 1550 1551 1551 1550 1549 1549 1549 1550 1550 1551 1550 1550 1549 1548 1547 1546 1545 1545 1545 1544 1544 1543
1496 1496 1497 1497 1497 1498 1500 1501 1504 1511 1518 1521 1523 1526 1528 1532 1534 1537 1539 1542 1544 1545 1546 1548 1548 1546 1547 1547 1547 1548 1548 1548 1547 1546 1546 1546 1545 1544 1543 1543 1543 1543 1543
1496 1496 1496 1496 1495 1496 1497 1499 1501 1506 1512 1515 1518 1521 1525 1528 1531 1533 1535 1537 1539 1540 1541 1543 1543 1542 1544 1545 1545 1545 1546 1546 1545 1544 1544 1544 1543 1543 1542 1541 1541 1541 1541
1495 1496 1497 1496 1496 1496 1496 1498 1500 1505 1509 1512 1517 1519 1522 1525 1527 1530 1532 1533 1534 1535 1536 1538 1537 1538 1541 1542 1542 1543 1543 1543 1543 1542 1542 1542 1541 1541 1540 1539 1539 1539 1539
1494 1496 1497 1496 1496 1497 1497 1498 1500 1503 1507 1511 1514 1516 1519 1521 1524 1527 1528 1529 1529 1529 1530 1532 1532 1533 1536 1538 1538 1539 1540 1540 1540 1540 1540 1539 1539 1539 1538 1537 1537 1537 1537
1493 1495 1496 1496 1496 1497 1498 1498 1499 1501 1505 1509 1511 1514 1517 1518 1521 1523 1525 1525 1524 1524 1525 1527 1528 1527 1530 1531 1534 1535 1536 1537 1537 1537 1537 1537 1536 1536 1535 1535 1535 1535 1535
1490 1492 1493 1494 1495 1497 1498 1499 1500 1501 1504 1505 1507 1509 1511 1514 1517 1517 1518 1519 1518 1518 1519 1521 1523 1524 1524 1525 1528 1530 1532 1533 1534 1535 1534 1534 1534 1533 1533 1533 1532 1532 1532
1488 1489 1490 1492 1494 1495 1495 1497 1499 1499 1500 1502 1503 1504 1505 1507 1508 1510 1511 1511 1512 1513 1515 1516 1518 1519 1519 1520 1523 1526 1528 1529 1531 1532 1531 1531 1531 1531 1531 1531 1530 1529 1529
1483 1484 1486 1488 1490 1492 1493 1494 1495 1495 1496 1497 1498 1499 1499 1499 1502 1504 1505 1505 1506 1507 1510 1511 1512 1515 1517 1518 1518 1520 1522 1525 1527 1528 1528 1529 1528 1528 1527 1526 1527 1527 1527
1479 1480 1482 1484 1486 1489 1490 1491 1491 1493 1493 1493 1493 1495 1497 1498 1499 1500 1501 1501 1502 1503 1504 1505 1507 1509 1510 1512 1513 1516 1519 1522 1524 1524 1525 1527 1526 1525 1524 1524 1524 1524 1524
1474 1477 1479 1481 1482 1484 1486 1487 1488 1490 1490 1489 1490 1491 1492 1494 1495 1495 1496 1497 1499 1500 1499 1500 1501 1501 1502 1506 1508 1513 1515 1516 1518 1519 1521 1523 1522 1522 1521 1521 1520 1520 1521
1470 1472 1473 1475 1476 1478 1480 1482 1484 1486 1486 1486 1486 1487 1488 1490 1491 1492 1493 1494 1494 1495 1495 1495 1496 1496 1498 1501 1504 1508 1512 1513 1515 1517 1516 1518 1518 1519 1520 1519 1517 1516 1517